Regional Weather Roundup
Issued by NWS Mobile, AL

Home | Current Version | Previous Version | Text Only | Print | Product List | Glossary On
Versions: 1 2 3 4 5 6 7 8 9 10 11 12 13 14 15 16 17 18 19 20 21 22 23 24 25 26 27
000
ASUS44 KMOB 260512
RWRMOB
REGIONAL WEATHER ROUNDUP
NATIONAL WEATHER SERVICE MOBILE AL
1200 AM CDT SUN MAR 26 2017

NOTE: "FAIR" INDICATES FEW OR NO CLOUDS BELOW 12,000 FEET WITH NO
      SIGNIFICANT WEATHER AND/OR OBSTRUCTIONS TO VISIBILITY.

  * THESE STATIONS ARE PART OF THE UNIVERSITY OF SOUTH ALABAMA
    MESONET AND ARE NOT UNDER NWS OR FAA QUALITY CONTROL.

ALZ061>064-260600-
COASTAL ALABAMA

CITY           SKY/WX    TMP DP  RH WIND       PRES   REMARKS
MOBILE REG APT CLEAR     61  59  93 SE7       30.04F
BROOKLEY FIELD CLEAR     65  63  93 SE8       30.05F
USA CAMPUS*      N/A     59  59 100 CALM      30.04S
DOG RIVER*       N/A     64  63  94 SE5       30.80F


CITY           SKY/WX    TMP DP  RH WIND       PRES   REMARKS
GULF SHORES    CLEAR     58  58 100 CALM      30.06R FOG

$$

ALZ051>060-260600-
INTERIOR SOUTHWEST AND SOUTH CENTRAL ALABAMA

CITY           SKY/WX    TMP DP  RH WIND       PRES   REMARKS
GREENVILLE     PTCLDY    60  57  89 SE3       30.05F
EVERGREEN      MOCLDY    60  58  92 SE3       30.07S
ATMORE*          N/A    N/A N/A N/A E6        30.08S
ANDALUSIA/OPP  MOCLDY    63  60  90 SE6       30.08F
ANDALUSIA*       N/A     61  59  94 SE7       30.08S
FLORALA APT    CLOUDY    62  60  93 SE3       30.10F
FLORALA*       NOT AVBL

$$

FLZ001>006-260600-
WESTERN FLORIDA PANHANDLE

CITY           SKY/WX    TMP DP  RH WIND       PRES   REMARKS
PENSACOLA      PTCLDY    65  60  84 E7        30.06S
NAS PENSACOLA  PTCLDY    64  61  90 E8        30.05S
MILTON         NOT AVBL
WHTNG S FIELD  NOT AVBL


CITY           SKY/WX    TMP DP  RH WIND       PRES   REMARKS
JAY*             N/A     59  57  94 E5        30.07S
DUKE FIELD     CLOUDY    61  60  96 E7        30.07F
CRESTVIEW      CLOUDY    62  60  93 E5        30.09F
VALPARAISO     CLOUDY    63  62  96 NE7       30.08F
DESTIN         MOCLDY    67  67 100 E5        30.08F

$$

MSZ076-079-260600-
INTERIOR SOUTHEAST MISSISSIPPI

CITY           SKY/WX    TMP DP  RH WIND       PRES   REMARKS
LEAKESVILLE*     N/A     57  57 100 CALM      30.02S
AGRICOLA*        N/A     59  59 100 CALM      30.02S

$$

MARINE OBSERVATIONS

STATION/POSITION TIME  TEMP    WIND        PRES    WAVE
                       AIR SEA DIR/SP/G            HT/PER
                 (UTC) (F)     (DEG/KT/KT) (MB)    (FT/S)
PASCAGOULA       0448   70     170/ 11/ 12 1016.6F
PETIT BOIS ISLND 0448   68     180/ 11/ 12 1017.4F
GRAND BAY        0345   69     170/ 11     1018.0S
KATRINA CUT      0430          150/  9     1016.9S
CEDAR POINT      0430   68     150/  7     1016.9S
E DAUPHIN ISLAND 0400   68     140/  9/ 10 1016.9S
MIDDLE BAY LIGHT 0400   67     120/ 10     1016.9
USCG MOBILE BAY  0448   65 70  140/  4/  7 1017.7F
STATE DOCKS      0442   64 66              1017.2F
MEAHER PARK      0430   61     110/  6     1017.6S
WEEKS BAY        0345   61                   N/A
FORT MORGAN      0448   68     150/ 13/ 14   N/A
12 S ORANGE BCH  0450   69 69  150/ 12/ 16 1017.4R   4/ 7
PENSACOLA BAY    0442   64 70  100/  3/  6 1018.3R
64 S DAUPHIN ISL 0450   70 73  150/ 12/ 16 1017.5F   5/ 7
67 S FORT MORGAN 0430   68     150/ 12     1018.0S

$$

SELECTED LOCATIONS ACROSS THE REGION

CITY           SKY/WX    TMP DP  RH WIND       PRES   REMARKS
NEW ORLEANS    CLEAR     66  64  93 S7        30.00F
GULFPORT       CLEAR     68  63  84 S8        30.01S
PASCAGOULA AP  CLEAR     56  54  93 CALM      30.02F
PASCAGOULA*    NOT AVBL
HATTIESBURG    CLEAR     58  56  93 CALM      30.02R
LAUREL         CLEAR     55  52  88 CALM      30.02F
MERIDIAN       CLOUDY    60  59  96 S8        30.01F
JACKSON        CLOUDY    62  58  86 CALM      29.97R
MONTGOMERY     MOCLDY    62  57  83 SE12      30.06F
TROY           LGT RAIN  61  60  97 SE8       30.09F
ASHFORD*         N/A     61  59  94 SE7       30.08S
DOTHAN         LGT RAIN  65  64  97 W7        30.16S
PANAMA CITY    RAIN      67  65  93 CALM      30.12R FOG

$$





USA.gov is the U.S. government's official web portal to all federal, state and local government web resources and services.